START_TIME,STEP,MOV.,P1,t_acc.,E44,t_acc.,A3,t_acc.,P10,t_acc.
1989-08-25T09:00:24.020 ,6,0,1.,1.2,0.,1.2,0.,1.2,0.,1.2
1989-08-25T09:00:25.220 ,6,0,3.,1.2,0.,1.2,0.,1.2,0.,1.2
1989-08-25T09:00:26.420 ,6,0,0.,1.2,0.,1.2,0.,1.2,0.,1.2
1989-08-25T09:00:27.620 ,6,0,2.,1.2,0.,1.2,0.,1.2,0.,1.2
1989-08-25T09:00:28.820 ,6,0,0.,1.2,0.,1.2,0.,1.2,0.,1.2
1989-08-25T09:00:30.020 ,6,0,1.,1.2,0.,1.2,0.,1.2,0.,1.2
1989-08-25T09:00:31.220 ,6,0,0.,1.2,0.,1.2,0.,1.2,0.,1.2
1989-08-25T09:00:32.420 ,6,0,1.,1.2,0.,1.2,0.,1.2,0.,1.2
1989-08-25T09:00:33.620 ,6,0,1.,1.2,0.,1.2,0.,1.2,0.,1.2
1989-08-25T09:00:34.820 ,6,0,1.,1.2,0.,1.2,0.,1.2,0.,1.2
1989-08-25T09:00:36.020 ,6,0,1.,1.2,0.,1.2,0.,1.2,0.,1.2
1989-08-25T09:00:37.220 ,6,0,1.,1.2,0.,1.2,0.,1.2,0.,1.2
1989-08-25T09:00:38.420 ,6,0,2.,1.2,0.,1.2,0.,1.2,0.,1.2
1989-08-25T09:00:39.620 ,6,0,0.,1.2,0.,1.2,0.,1.2,0.,1.2
1989-08-25T09:00:40.820 ,6,0,0.,1.2,0.,1.2,0.,1.2,0.,1.2
1989-08-25T09:00:42.020 ,6,0,0.,1.2,0.,1.2,0.,1.2,0.,1.2
1989-08-25T09:00:43.220 ,6,0,1.,1.2,0.,1.2,0.,1.2,0.,1.2
1989-08-25T09:00:44.420 ,6,0,0.,1.2,0.,1.2,0.,1.2,0.,1.2
1989-08-25T09:00:45.620 ,6,0,0.,1.2,0.,1.2,0.,1.2,0.,1.2
1989-08-25T09:00:46.820 ,6,0,2.,1.2,0.,1.2,0.,1.2,0.,1.2
1989-08-25T09:00:15.620 ,0,0,,0,,0,,0,,0
1989-08-25T09:00:16.820 ,0,0,,0,,0,,0,,0
1989-08-25T09:00:18.020 ,0,0,,0,,0,,0,,0
1989-08-25T09:00:19.220 ,0,0,,0,,0,,0,,0
1989-08-25T09:00:20.420 ,0,0,,0,,0,,0,,0
1989-08-25T09:00:21.620 ,0,0,,0,,0,,0,,0
1989-08-25T09:00:22.820 ,0,0,,0,,0,,0,,0
1989-08-25T09:00:24.020 ,0,0,,0,,0,,0,,0
1989-08-25T09:00:25.220 ,0,0,,0,,0,,0,,0
1989-08-25T09:00:26.420 ,0,0,,0,,0,,0,,0
1989-08-25T09:00:27.620 ,0,0,,0,,0,,0,,0
1989-08-25T09:00:28.820 ,0,0,,0,,0,,0,,0
1989-08-25T09:00:30.020 ,0,0,,0,,0,,0,,0
1989-08-25T09:00:31.220 ,0,0,2.,1.2,0.,1.2,0.,1.2,0.,1.2
1989-08-25T09:00:32.420 ,0,0,0.,1.2,0.,1.2,0.,1.2,0.,1.2
1989-08-25T09:00:33.620 ,0,0,1.,1.2,0.,1.2,0.,1.2,0.,1.2
1989-08-25T09:00:34.820 ,0,0,0.,1.2,0.,1.2,0.,1.2,0.,1.2
1989-08-25T09:00:36.020 ,0,0,0.,1.2,0.,1.2,0.,1.2,0.,1.2
1989-08-25T09:00:37.220 ,0,0,3.,1.2,0.,1.2,0.,1.2,0.,1.2
1989-08-25T09:00:38.420 ,0,0,0.,1.2,0.,1.2,0.,1.2,0.,1.2
1989-08-25T09:00:24.020 ,6,0,1.,1.2,0.,1.2,0.,1.2,0.,1.2
1989-08-25T09:00:25.220 ,6,0,3.,1.2,0.,1.2,0.,1.2,0.,1.2
1989-08-25T09:00:26.420 ,6,0,0.,1.2,0.,1.2,0.,1.2,0.,1.2
1989-08-25T09:00:27.620 ,6,0,2.,1.2,0.,1.2,0.,1.2,0.,1.2
1989-08-25T09:00:28.820 ,6,0,0.,1.2,0.,1.2,0.,1.2,0.,1.2
1989-08-25T09:00:30.020 ,6,0,1.,1.2,0.,1.2,0.,1.2,0.,1.2
1989-08-25T09:00:31.220 ,6,0,0.,1.2,0.,1.2,0.,1.2,0.,1.2
1989-08-25T09:00:32.420 ,6,0,1.,1.2,0.,1.2,0.,1.2,0.,1.2
1989-08-25T09:00:33.620 ,6,0,1.,1.2,0.,1.2,0.,1.2,0.,1.2
1989-08-25T09:00:34.820 ,6,0,1.,1.2,0.,1.2,0.,1.2,0.,1.2
1989-08-25T09:00:36.020 ,6,0,1.,1.2,0.,1.2,0.,1.2,0.,1.2
1989-08-25T09:00:37.220 ,6,0,1.,1.2,0.,1.2,0.,1.2,0.,1.2
1989-08-25T09:00:38.420 ,6,0,2.,1.2,0.,1.2,0.,1.2,0.,1.2
1989-08-25T09:00:39.620 ,6,0,0.,1.2,0.,1.2,0.,1.2,0.,1.2
1989-08-25T09:00:40.820 ,6,0,0.,1.2,0.,1.2,0.,1.2,0.,1.2
1989-08-25T09:00:42.020 ,6,0,0.,1.2,0.,1.2,0.,1.2,0.,1.2
1989-08-25T09:00:43.220 ,6,0,1.,1.2,0.,1.2,0.,1.2,0.,1.2
1989-08-25T09:00:44.420 ,6,0,0.,1.2,0.,1.2,0.,1.2,0.,1.2
1989-08-25T09:00:45.620 ,6,0,0.,1.2,0.,1.2,0.,1.2,0.,1.2
1989-08-25T09:00:46.820 ,6,0,2.,1.2,0.,1.2,0.,1.2,0.,1.2
1989-08-25T09:00:48.020 ,6,0,1.,1.2,0.,1.2,0.,1.2,0.,1.2
1989-08-25T09:00:49.220 ,6,0,0.,1.2,0.,1.2,0.,1.2,0.,1.2
1989-08-25T09:00:50.420 ,6,0,1.,1.2,0.,1.2,0.,1.2,0.,1.2
1989-08-25T09:00:51.620 ,6,0,2.,1.2,0.,1.2,0.,1.2,0.,1.2
1989-08-25T09:00:52.820 ,6,0,1.,1.2,0.,1.2,0.,1.2,0.,1.2
1989-08-25T09:00:54.020 ,6,0,0.,1.2,0.,1.2,0.,1.2,0.,1.2
1989-08-25T09:00:55.220 ,6,0,0.,1.2,0.,1.2,0.,1.2,0.,1.2
1989-08-25T09:00:56.420 ,6,0,0.,1.2,0.,1.2,0.,1.2,0.,1.2
1989-08-25T09:00:57.620 ,6,0,1.,1.2,0.,1.2,0.,1.2,0.,1.2
1989-08-25T09:00:58.820 ,6,0,1.,1.2,0.,1.2,0.,1.2,0.,1.2
1989-08-25T09:01:00.020 ,6,0,3.,1.2,0.,1.2,0.,1.2,0.,1.2
1989-08-25T09:01:01.220 ,6,0,2.,1.2,0.,1.2,0.,1.2,0.,1.2
1989-08-25T09:01:02.420 ,6,0,1.,1.2,0.,1.2,0.,1.2,0.,1.2
1989-08-25T09:01:03.620 ,6,0,1.,1.2,0.,1.2,0.,1.2,0.,1.2
1989-08-25T09:01:04.820 ,6,0,1.,1.2,0.,1.2,0.,1.2,0.,1.2
1989-08-25T09:01:06.020 ,6,0,1.,1.2,0.,1.2,0.,1.2,0.,1.2
1989-08-25T09:01:07.220 ,6,0,0.,1.2,0.,1.2,0.,1.2,0.,1.2
1989-08-25T09:01:08.420 ,6,0,0.,1.2,0.,1.2,0.,1.2,0.,1.2
1989-08-25T09:01:09.620 ,6,0,2.,1.2,0.,1.2,0.,1.2,0.,1.2
1989-08-25T09:01:10.820 ,6,0,0.,1.2,0.,1.2,0.,1.2,0.,1.2
1989-08-25T09:01:12.020 ,6,0,1.,1.2,0.,1.2,0.,1.2,0.,1.2
1989-08-25T09:01:13.220 ,6,0,3.,1.2,0.,1.2,0.,1.2,0.,1.2
1989-08-25T09:01:14.420 ,6,0,0.,1.2,0.,1.2,0.,1.2,0.,1.2
1989-08-25T09:01:15.620 ,6,0,1.,1.2,0.,1.2,0.,1.2,0.,1.2
1989-08-25T09:01:16.820 ,6,0,0.,1.2,0.,1.2,0.,1.2,0.,1.2
1989-08-25T09:01:18.020 ,6,0,0.,1.2,0.,1.2,0.,1.2,0.,1.2
1989-08-25T09:01:19.220 ,6,0,2.,1.2,0.,1.2,0.,1.2,0.,1.2
1989-08-25T09:01:20.420 ,6,0,2.,1.2,0.,1.2,0.,1.2,0.,1.2
1989-08-25T09:01:21.620 ,6,0,0.,1.2,0.,1.2,0.,1.2,0.,1.2
1989-08-25T09:01:22.820 ,6,0,0.,1.2,0.,1.2,0.,1.2,0.,1.2
1989-08-25T09:01:24.020 ,6,0,0.,1.2,0.,1.2,0.,1.2,0.,1.2
1989-08-25T09:01:25.220 ,6,0,0.,1.2,0.,1.2,0.,1.2,0.,1.2
1989-08-25T09:01:26.420 ,6,0,1.,1.2,0.,1.2,0.,1.2,0.,1.2
1989-08-25T09:01:27.620 ,6,0,0.,1.2,0.,1.2,0.,1.2,0.,1.2
1989-08-25T09:01:28.820 ,6,0,1.,1.2,0.,1.2,0.,1.2,0.,1.2
1989-08-25T09:01:30.020 ,6,0,0.,1.2,0.,1.2,0.,1.2,0.,1.2
1989-08-25T09:01:31.220 ,6,0,0.,1.2,0.,1.2,0.,1.2,0.,1.2
1989-08-25T09:01:32.420 ,6,0,1.,1.2,0.,1.2,0.,1.2,0.,1.2
1989-08-25T09:01:33.620 ,6,0,0.,1.2,0.,1.2,0.,1.2,0.,1.2
1989-08-25T09:01:34.820 ,6,0,1.,1.2,0.,1.2,0.,1.2,0.,1.2
1989-08-25T09:01:36.020 ,5,0,0.,1.2,0.,1.2,2.,1.2,0.,1.2
1989-08-25T09:01:37.220 ,5,0,0.,1.2,0.,1.2,5.,1.2,0.,1.2
1989-08-25T09:01:38.420 ,5,0,0.,1.2,0.,1.2,7.,1.2,0.,1.2
1989-08-25T09:01:39.620 ,5,0,0.,1.2,0.,1.2,5.,1.2,0.,1.2
1989-08-25T09:01:40.820 ,5,0,0.,1.2,0.,1.2,11.,1.2,0.,1.2
1989-08-25T09:01:42.020 ,5,0,0.,1.2,0.,1.2,4.,1.2,0.,1.2
1989-08-25T09:01:43.220 ,5,0,0.,1.2,0.,1.2,4.,1.2,0.,1.2
1989-08-25T09:01:44.420 ,5,0,0.,1.2,0.,1.2,5.,1.2,0.,1.2
1989-08-25T09:01:45.620 ,5,0,0.,1.2,0.,1.2,6.,1.2,0.,1.2
1989-08-25T09:01:46.820 ,5,0,0.,1.2,0.,1.2,7.,1.2,0.,1.2
1989-08-25T09:01:48.020 ,5,0,0.,1.2,0.,1.2,1.,1.2,0.,1.2
1989-08-25T09:01:49.220 ,5,0,0.,1.2,0.,1.2,0.,1.2,0.,1.2
1989-08-25T09:01:50.420 ,5,0,0.,1.2,0.,1.2,0.,1.2,0.,1.2
1989-08-25T09:01:51.620 ,5,0,0.,1.2,0.,1.2,0.,1.2,0.,1.2
1989-08-25T09:01:52.820 ,5,0,1.,1.2,0.,1.2,0.,1.2,0.,1.2
1989-08-25T09:01:54.020 ,5,0,1.,1.2,0.,1.2,0.,1.2,0.,1.2
1989-08-25T09:01:55.220 ,5,0,1.,1.2,0.,1.2,0.,1.2,0.,1.2
1989-08-25T09:01:56.420 ,5,0,0.,1.2,0.,1.2,0.,1.2,0.,1.2
1989-08-25T09:01:57.620 ,5,0,1.,1.2,0.,1.2,0.,1.2,0.,1.2
1989-08-25T09:01:58.820 ,5,0,0.,1.2,0.,1.2,0.,1.2,0.,1.2
1989-08-25T09:02:00.020 ,1,0,1.,1.2,0.,1.2,0.,1.2,0.,1.2
1989-08-25T09:02:01.220 ,1,0,0.,1.2,0.,1.2,0.,1.2,0.,1.2
1989-08-25T09:02:02.420 ,1,0,0.,1.2,0.,1.2,0.,1.2,0.,1.2
1989-08-25T09:02:03.620 ,1,0,0.,1.2,0.,1.2,0.,1.2,0.,1.2
1989-08-25T09:02:04.820 ,1,0,0.,1.2,0.,1.2,0.,1.2,0.,1.2
1989-08-25T09:02:06.020 ,1,0,2.,1.2,0.,1.2,0.,1.2,0.,1.2
1989-08-25T09:02:07.220 ,1,0,0.,1.2,0.,1.2,0.,1.2,0.,1.2
1989-08-25T09:02:08.420 ,1,0,2.,1.2,0.,1.2,0.,1.2,0.,1.2
1989-08-25T09:02:09.620 ,1,0,0.,1.2,0.,1.2,0.,1.2,0.,1.2
1989-08-25T09:02:10.820 ,1,0,0.,1.2,0.,1.2,0.,1.2,0.,1.2
1989-08-25T09:02:12.020 ,1,0,1.,1.2,0.,1.2,0.,1.2,0.,1.2
1989-08-25T09:02:13.220 ,1,0,0.,1.2,0.,1.2,0.,1.2,0.,1.2
1989-08-25T09:02:14.420 ,1,0,0.,1.2,0.,1.2,0.,1.2,0.,1.2
1989-08-25T09:02:15.620 ,1,0,0.,1.2,0.,1.2,0.,1.2,0.,1.2
1989-08-25T09:02:16.820 ,1,0,0.,1.2,0.,1.2,0.,1.2,0.,1.2
1989-08-25T09:02:18.020 ,1,0,0.,1.2,0.,1.2,0.,1.2,0.,1.2
1989-08-25T09:02:19.220 ,1,0,0.,1.2,0.,1.2,0.,1.2,0.,1.2
1989-08-25T09:02:20.420 ,1,0,0.,1.2,0.,1.2,0.,1.2,0.,1.2
1989-08-25T09:02:21.620 ,1,0,0.,1.2,0.,1.2,0.,1.2,0.,1.2
1989-08-25T09:02:22.820 ,1,0,0.,1.2,0.,1.2,0.,1.2,0.,1.2
1989-08-25T09:02:24.020 ,0,0,1.,1.2,0.,1.2,0.,1.2,0.,1.2
1989-08-25T09:02:25.220 ,0,0,0.,1.2,0.,1.2,0.,1.2,0.,1.2
1989-08-25T09:02:26.420 ,0,0,1.,1.2,0.,1.2,0.,1.2,0.,1.2
1989-08-25T09:02:27.620 ,0,0,1.,1.2,0.,1.2,0.,1.2,0.,1.2
1989-08-25T09:02:28.820 ,0,0,1.,1.2,0.,1.2,0.,1.2,0.,1.2
1989-08-25T09:02:30.020 ,0,0,2.,1.2,0.,1.2,0.,1.2,0.,1.2
1989-08-25T09:02:31.220 ,0,0,0.,1.2,0.,1.2,0.,1.2,0.,1.2
1989-08-25T09:02:32.420 ,0,0,1.,1.2,0.,1.2,0.,1.2,0.,1.2
1989-08-25T09:02:33.620 ,0,0,1.,1.2,0.,1.2,0.,1.2,0.,1.2
1989-08-25T09:02:34.820 ,0,0,1.,1.2,0.,1.2,0.,1.2,0.,1.2
1989-08-25T09:02:36.020 ,0,0,0.,1.2,0.,1.2,0.,1.2,0.,1.2
1989-08-25T09:02:37.220 ,0,0,0.,1.2,0.,1.2,0.,1.2,0.,1.2
1989-08-25T09:02:38.420 ,0,0,2.,1.2,0.,1.2,0.,1.2,0.,1.2
1989-08-25T09:02:39.620 ,0,0,1.,1.2,0.,1.2,0.,1.2,0.,1.2
1989-08-25T09:02:40.820 ,0,0,0.,1.2,0.,1.2,0.,1.2,0.,1.2
1989-08-25T09:02:42.020 ,0,0,0.,1.2,0.,1.2,0.,1.2,0.,1.2
1989-08-25T09:02:43.220 ,0,0,0.,1.2,0.,1.2,0.,1.2,0.,1.2
1989-08-25T09:02:44.420 ,0,0,0.,1.2,0.,1.2,0.,1.2,0.,1.2
1989-08-25T09:02:45.620 ,0,0,0.,1.2,0.,1.2,0.,1.2,0.,1.2
1989-08-25T09:02:46.820 ,0,0,0.,1.2,0.,1.2,0.,1.2,0.,1.2
1989-08-25T09:02:48.020 ,0,0,0.,1.2,0.,1.2,0.,1.2,0.,1.2
1989-08-25T09:02:49.220 ,0,0,0.,1.2,0.,1.2,0.,1.2,0.,1.2
1989-08-25T09:02:50.420 ,0,0,0.,1.2,0.,1.2,0.,1.2,0.,1.2
1989-08-25T09:02:51.620 ,0,0,1.,1.2,0.,1.2,0.,1.2,0.,1.2
1989-08-25T09:02:52.820 ,0,0,0.,1.2,0.,1.2,0.,1.2,0.,1.2
1989-08-25T09:02:54.020 ,0,0,1.,1.2,0.,1.2,0.,1.2,0.,1.2
1989-08-25T09:02:55.220 ,0,0,0.,1.2,0.,1.2,0.,1.2,0.,1.2
1989-08-25T09:02:56.420 ,0,0,1.,1.2,0.,1.2,0.,1.2,0.,1.2
1989-08-25T09:02:57.620 ,0,0,1.,1.2,0.,1.2,0.,1.2,0.,1.2
1989-08-25T09:02:58.820 ,0,0,1.,1.2,0.,1.2,0.,1.2,0.,1.2
1989-08-25T09:03:00.020 ,0,0,0.,1.2,0.,1.2,0.,1.2,0.,1.2
1989-08-25T09:03:01.220 ,0,0,1.,1.2,0.,1.2,0.,1.2,0.,1.2
1989-08-25T09:03:02.420 ,0,0,0.,1.2,0.,1.2,0.,1.2,0.,1.2
1989-08-25T09:03:03.620 ,0,0,1.,1.2,0.,1.2,0.,1.2,0.,1.2
1989-08-25T09:03:04.820 ,0,0,0.,1.2,0.,1.2,0.,1.2,0.,1.2
1989-08-25T09:03:06.020 ,0,0,2.,1.2,0.,1.2,0.,1.2,0.,1.2
1989-08-25T09:03:07.220 ,0,0,0.,1.2,0.,1.2,0.,1.2,0.,1.2
1989-08-25T09:03:08.420 ,0,0,2.,1.2,0.,1.2,0.,1.2,0.,1.2
1989-08-25T09:03:09.620 ,0,0,4.,1.2,0.,1.2,0.,1.2,0.,1.2
1989-08-25T09:03:10.820 ,0,0,1.,1.2,0.,1.2,0.,1.2,0.,1.2
1989-08-25T09:02:40.820 ,0,0,,0,,0,,0,,0
1989-08-25T09:02:42.020 ,0,0,,0,,0,,0,,0
1989-08-25T09:02:43.220 ,0,0,,0,,0,,0,,0
1989-08-25T09:02:44.420 ,0,0,,0,,0,,0,,0
1989-08-25T09:02:45.620 ,0,0,,0,,0,,0,,0
1989-08-25T09:02:46.820 ,0,0,,0,,0,,0,,0
1989-08-25T09:02:48.020 ,0,0,,0,,0,,0,,0
1989-08-25T09:02:49.220 ,0,0,,0,,0,,0,,0
1989-08-25T09:02:50.420 ,0,0,,0,,0,,0,,0
1989-08-25T09:02:51.620 ,0,0,,0,,0,,0,,0
1989-08-25T09:02:52.820 ,0,0,,0,,0,,0,,0
1989-08-25T09:02:54.020 ,0,0,,0,,0,,0,,0
1989-08-25T09:02:55.220 ,0,0,,0,,0,,0,,0
1989-08-25T09:02:56.420 ,0,0,,0,,0,,0,,0
1989-08-25T09:02:57.620 ,0,0,0.,1.2,0.,1.2,0.,1.2,0.,1.2
1989-08-25T09:02:58.820 ,0,0,0.,1.2,0.,1.2,0.,1.2,0.,1.2
1989-08-25T09:03:00.020 ,0,0,0.,1.2,0.,1.2,0.,1.2,0.,1.2
1989-08-25T09:03:01.220 ,0,0,0.,1.2,0.,1.2,0.,1.2,0.,1.2
1989-08-25T09:03:02.420 ,0,0,0.,1.2,0.,1.2,0.,1.2,0.,1.2
1989-08-25T09:03:03.620 ,0,0,0.,1.2,0.,1.2,0.,1.2,0.,1.2
1989-08-25T09:02:48.020 ,0,0,0.,1.2,0.,1.2,0.,1.2,0.,1.2
1989-08-25T09:02:49.220 ,0,0,0.,1.2,0.,1.2,0.,1.2,0.,1.2
1989-08-25T09:02:50.420 ,0,0,0.,1.2,0.,1.2,0.,1.2,0.,1.2
1989-08-25T09:02:51.620 ,0,0,1.,1.2,0.,1.2,0.,1.2,0.,1.2
1989-08-25T09:02:52.820 ,0,0,0.,1.2,0.,1.2,0.,1.2,0.,1.2
1989-08-25T09:02:54.020 ,0,0,1.,1.2,0.,1.2,0.,1.2,0.,1.2
1989-08-25T09:02:55.220 ,0,0,0.,1.2,0.,1.2,0.,1.2,0.,1.2
1989-08-25T09:02:56.420 ,0,0,1.,1.2,0.,1.2,0.,1.2,0.,1.2
1989-08-25T09:02:57.620 ,0,0,1.,1.2,0.,1.2,0.,1.2,0.,1.2
1989-08-25T09:02:58.820 ,0,0,1.,1.2,0.,1.2,0.,1.2,0.,1.2
1989-08-25T09:03:00.020 ,0,0,0.,1.2,0.,1.2,0.,1.2,0.,1.2
1989-08-25T09:03:01.220 ,0,0,1.,1.2,0.,1.2,0.,1.2,0.,1.2
1989-08-25T09:03:02.420 ,0,0,0.,1.2,0.,1.2,0.,1.2,0.,1.2
1989-08-25T09:03:03.620 ,0,0,1.,1.2,0.,1.2,0.,1.2,0.,1.2
1989-08-25T09:03:04.820 ,0,0,0.,1.2,0.,1.2,0.,1.2,0.,1.2
1989-08-25T09:03:06.020 ,0,0,2.,1.2,0.,1.2,0.,1.2,0.,1.2
1989-08-25T09:03:07.220 ,0,0,0.,1.2,0.,1.2,0.,1.2,0.,1.2
1989-08-25T09:03:08.420 ,0,0,2.,1.2,0.,1.2,0.,1.2,0.,1.2
1989-08-25T09:03:09.620 ,0,0,4.,1.2,0.,1.2,0.,1.2,0.,1.2
1989-08-25T09:03:10.820 ,0,0,1.,1.2,0.,1.2,0.,1.2,0.,1.2
1989-08-25T09:03:12.020 ,0,0,0.,1.2,0.,1.2,0.,1.2,0.,1.2
1989-08-25T09:03:13.220 ,0,0,0.,1.2,0.,1.2,0.,1.2,0.,1.2
1989-08-25T09:03:14.420 ,0,0,0.,1.2,0.,1.2,0.,1.2,0.,1.2
1989-08-25T09:03:15.620 ,0,0,0.,1.2,0.,1.2,0.,1.2,0.,1.2
1989-08-25T09:03:16.820 ,0,0,0.,1.2,0.,1.2,0.,1.2,0.,1.2
1989-08-25T09:03:18.020 ,0,0,1.,1.2,0.,1.2,0.,1.2,0.,1.2
1989-08-25T09:03:19.220 ,0,0,0.,1.2,0.,1.2,0.,1.2,0.,1.2
1989-08-25T09:03:20.420 ,0,0,1.,1.2,0.,1.2,0.,1.2,0.,1.2
1989-08-25T09:03:21.620 ,0,0,0.,1.2,0.,1.2,0.,1.2,0.,1.2
1989-08-25T09:03:22.820 ,0,0,0.,1.2,0.,1.2,0.,1.2,0.,1.2
1989-08-25T09:03:24.020 ,0,0,1.,1.2,0.,1.2,0.,1.2,0.,1.2
1989-08-25T09:03:25.220 ,0,0,0.,1.2,0.,1.2,0.,1.2,0.,1.2
1989-08-25T09:03:26.420 ,0,0,1.,1.2,0.,1.2,0.,1.2,0.,1.2
1989-08-25T09:03:27.620 ,0,0,0.,1.2,0.,1.2,0.,1.2,0.,1.2
1989-08-25T09:03:28.820 ,0,0,0.,1.2,0.,1.2,0.,1.2,0.,1.2
1989-08-25T09:03:30.020 ,0,0,0.,1.2,0.,1.2,0.,1.2,0.,1.2
1989-08-25T09:03:31.220 ,0,0,0.,1.2,0.,1.2,0.,1.2,0.,1.2
1989-08-25T09:03:32.420 ,0,0,1.,1.2,0.,1.2,0.,1.2,0.,1.2
1989-08-25T09:03:33.620 ,0,0,0.,1.2,0.,1.2,0.,1.2,0.,1.2
1989-08-25T09:03:34.820 ,0,0,0.,1.2,0.,1.2,0.,1.2,0.,1.2
1989-08-25T09:03:36.020 ,0,0,0.,1.2,0.,1.2,0.,1.2,0.,1.2
1989-08-25T09:03:37.220 ,0,0,0.,1.2,0.,1.2,0.,1.2,0.,1.2
1989-08-25T09:03:38.420 ,0,0,0.,1.2,0.,1.2,0.,1.2,0.,1.2
1989-08-25T09:03:39.620 ,0,0,0.,1.2,0.,1.2,0.,1.2,0.,1.2
1989-08-25T09:03:40.820 ,0,0,0.,1.2,0.,1.2,0.,1.2,0.,1.2
1989-08-25T09:03:42.020 ,0,0,1.,1.2,0.,1.2,0.,1.2,0.,1.2
1989-08-25T09:03:43.220 ,0,0,2.,1.2,0.,1.2,0.,1.2,0.,1.2
1989-08-25T09:03:44.420 ,0,0,0.,1.2,0.,1.2,0.,1.2,0.,1.2
1989-08-25T09:03:45.620 ,0,0,0.,1.2,0.,1.2,0.,1.2,0.,1.2
1989-08-25T09:03:46.820 ,0,0,1.,1.2,0.,1.2,0.,1.2,0.,1.2
1989-08-25T09:03:48.020 ,0,0,0.,1.2,0.,1.2,0.,1.2,0.,1.2
1989-08-25T09:03:49.220 ,0,0,0.,1.2,0.,1.2,0.,1.2,0.,1.2
1989-08-25T09:03:50.420 ,0,0,0.,1.2,0.,1.2,0.,1.2,0.,1.2
1989-08-25T09:03:51.620 ,0,0,0.,1.2,0.,1.2,0.,1.2,0.,1.2
1989-08-25T09:03:52.820 ,0,0,0.,1.2,0.,1.2,0.,1.2,0.,1.2
1989-08-25T09:03:54.020 ,0,0,0.,1.2,0.,1.2,0.,1.2,0.,1.2
1989-08-25T09:03:55.220 ,0,0,1.,1.2,0.,1.2,0.,1.2,0.,1.2
1989-08-25T09:03:56.420 ,0,0,1.,1.2,0.,1.2,0.,1.2,0.,1.2
1989-08-25T09:03:57.620 ,0,0,3.,1.2,0.,1.2,0.,1.2,0.,1.2
1989-08-25T09:03:58.820 ,0,0,1.,1.2,0.,1.2,0.,1.2,0.,1.2
1989-08-25T09:04:00.020 ,0,0,0.,1.2,0.,1.2,0.,1.2,0.,1.2
1989-08-25T09:04:01.220 ,0,0,0.,1.2,0.,1.2,0.,1.2,0.,1.2
1989-08-25T09:04:02.420 ,0,0,0.,1.2,0.,1.2,0.,1.2,0.,1.2
1989-08-25T09:04:03.620 ,0,0,1.,1.2,0.,1.2,0.,1.2,0.,1.2
1989-08-25T09:04:04.820 ,0,0,0.,1.2,0.,1.2,0.,1.2,0.,1.2
1989-08-25T09:04:06.020 ,0,0,0.,1.2,0.,1.2,0.,1.2,0.,1.2
1989-08-25T09:04:07.220 ,0,0,1.,1.2,0.,1.2,0.,1.2,0.,1.2
1989-08-25T09:04:08.420 ,0,0,0.,1.2,0.,1.2,0.,1.2,0.,1.2
1989-08-25T09:04:09.620 ,0,0,0.,1.2,0.,1.2,0.,1.2,0.,1.2
1989-08-25T09:04:10.820 ,0,0,0.,1.2,0.,1.2,0.,1.2,0.,1.2
1989-08-25T09:04:12.020 ,0,0,0.,1.2,0.,1.2,0.,1.2,0.,1.2
1989-08-25T09:04:13.220 ,0,0,0.,1.2,0.,1.2,0.,1.2,0.,1.2
1989-08-25T09:04:14.420 ,0,0,1.,1.2,0.,1.2,0.,1.2,0.,1.2
1989-08-25T09:04:15.620 ,0,0,0.,1.2,0.,1.2,0.,1.2,0.,1.2
1989-08-25T09:04:16.820 ,0,0,0.,1.2,0.,1.2,0.,1.2,0.,1.2
1989-08-25T09:04:18.020 ,0,0,0.,1.2,0.,1.2,0.,1.2,0.,1.2
1989-08-25T09:04:19.220 ,0,0,1.,1.2,0.,1.2,0.,1.2,0.,1.2
1989-08-25T09:04:20.420 ,0,0,0.,1.2,0.,1.2,0.,1.2,0.,1.2
1989-08-25T09:04:21.620 ,0,0,0.,1.2,0.,1.2,0.,1.2,0.,1.2
1989-08-25T09:04:22.820 ,0,0,1.,1.2,0.,1.2,0.,1.2,0.,1.2
1989-08-25T09:04:24.020 ,0,0,0.,1.2,0.,1.2,0.,1.2,0.,1.2
1989-08-25T09:04:25.220 ,0,0,0.,1.2,0.,1.2,0.,1.2,0.,1.2
1989-08-25T09:04:26.420 ,0,0,0.,1.2,0.,1.2,0.,1.2,0.,1.2
1989-08-25T09:04:27.620 ,0,0,0.,1.2,0.,1.2,0.,1.2,0.,1.2
1989-08-25T09:04:28.820 ,0,0,0.,1.2,0.,1.2,0.,1.2,0.,1.2
1989-08-25T09:04:30.020 ,0,0,1.,1.2,0.,1.2,0.,1.2,0.,1.2
1989-08-25T09:04:31.220 ,0,0,0.,1.2,0.,1.2,0.,1.2,0.,1.2
1989-08-25T09:04:32.420 ,0,0,0.,1.2,0.,1.2,0.,1.2,0.,1.2
1989-08-25T09:04:33.620 ,0,0,2.,1.2,0.,1.2,0.,1.2,0.,1.2
1989-08-25T09:04:34.820 ,0,0,1.,1.2,0.,1.2,0.,1.2,0.,1.2
1989-08-25T09:04:36.020 ,0,0,1.,1.2,0.,1.2,0.,1.2,0.,1.2
1989-08-25T09:04:37.220 ,0,0,1.,1.2,0.,1.2,0.,1.2,0.,1.2
1989-08-25T09:04:38.420 ,0,0,0.,1.2,0.,1.2,0.,1.2,0.,1.2
1989-08-25T09:04:39.620 ,0,0,0.,1.2,0.,1.2,0.,1.2,0.,1.2
1989-08-25T09:04:40.820 ,0,0,0.,1.2,0.,1.2,0.,1.2,0.,1.2
1989-08-25T09:04:42.020 ,0,0,0.,1.2,0.,1.2,0.,1.2,0.,1.2
1989-08-25T09:04:43.220 ,0,0,0.,1.2,0.,1.2,0.,1.2,0.,1.2
1989-08-25T09:04:44.420 ,0,0,0.,1.2,0.,1.2,0.,1.2,0.,1.2
1989-08-25T09:04:45.620 ,0,0,0.,1.2,0.,1.2,0.,1.2,0.,1.2
1989-08-25T09:04:46.820 ,0,0,1.,1.2,0.,1.2,0.,1.2,0.,1.2
1989-08-25T09:04:48.020 ,0,0,0.,1.2,0.,1.2,0.,1.2,0.,1.2
1989-08-25T09:04:49.220 ,0,0,0.,1.2,0.,1.2,0.,1.2,0.,1.2
1989-08-25T09:04:50.420 ,0,0,0.,1.2,0.,1.2,0.,1.2,0.,1.2
1989-08-25T09:04:51.620 ,0,0,0.,1.2,0.,1.2,0.,1.2,0.,1.2
1989-08-25T09:04:52.820 ,0,0,0.,1.2,0.,1.2,0.,1.2,0.,1.2
1989-08-25T09:04:54.020 ,0,0,0.,1.2,0.,1.2,0.,1.2,0.,1.2
1989-08-25T09:04:55.220 ,0,0,1.,1.2,0.,1.2,0.,1.2,0.,1.2
1989-08-25T09:04:56.420 ,0,0,0.,1.2,0.,1.2,0.,1.2,0.,1.2
1989-08-25T09:04:57.620 ,0,0,1.,1.2,0.,1.2,0.,1.2,0.,1.2
1989-08-25T09:04:58.820 ,0,0,0.,1.2,0.,1.2,0.,1.2,0.,1.2
1989-08-25T09:05:00.020 ,0,0,0.,1.2,0.,1.2,0.,1.2,0.,1.2
1989-08-25T09:05:01.220 ,0,0,1.,1.2,0.,1.2,0.,1.2,0.,1.2
1989-08-25T09:05:02.420 ,0,0,0.,1.2,0.,1.2,0.,1.2,0.,1.2
1989-08-25T09:05:03.620 ,0,0,1.,1.2,0.,1.2,0.,1.2,0.,1.2
1989-08-25T09:05:04.820 ,0,0,0.,1.2,0.,1.2,0.,1.2,0.,1.2
1989-08-25T09:05:06.020 ,0,0,0.,1.2,0.,1.2,0.,1.2,0.,1.2
1989-08-25T09:05:07.220 ,0,0,0.,1.2,0.,1.2,0.,1.2,0.,1.2
1989-08-25T09:05:08.420 ,0,0,1.,1.2,0.,1.2,0.,1.2,0.,1.2
1989-08-25T09:05:09.620 ,0,0,0.,1.2,0.,1.2,0.,1.2,0.,1.2
1989-08-25T09:05:10.820 ,0,0,0.,1.2,0.,1.2,0.,1.2,0.,1.2
1989-08-25T09:05:12.020 ,0,0,2.,1.2,0.,1.2,0.,1.2,0.,1.2
1989-08-25T09:05:13.220 ,0,0,1.,1.2,0.,1.2,0.,1.2,0.,1.2
1989-08-25T09:05:14.420 ,0,0,1.,1.2,0.,1.2,0.,1.2,0.,1.2
1989-08-25T09:05:15.620 ,0,0,1.,1.2,0.,1.2,0.,1.2,0.,1.2
1989-08-25T09:05:16.820 ,0,0,0.,1.2,0.,1.2,0.,1.2,0.,1.2
1989-08-25T09:05:18.020 ,0,0,0.,1.2,0.,1.2,0.,1.2,0.,1.2
1989-08-25T09:05:19.220 ,0,0,1.,1.2,0.,1.2,0.,1.2,0.,1.2
1989-08-25T09:05:20.420 ,0,0,1.,1.2,0.,1.2,0.,1.2,0.,1.2
1989-08-25T09:05:21.620 ,0,0,1.,1.2,0.,1.2,0.,1.2,0.,1.2
1989-08-25T09:05:22.820 ,0,0,1.,1.2,0.,1.2,0.,1.2,0.,1.2
1989-08-25T09:05:24.020 ,0,0,0.,1.2,0.,1.2,0.,1.2,0.,1.2
1989-08-25T09:05:25.220 ,0,0,0.,1.2,0.,1.2,0.,1.2,0.,1.2
1989-08-25T09:05:26.420 ,0,0,0.,1.2,0.,1.2,0.,1.2,0.,1.2
1989-08-25T09:05:27.620 ,0,0,1.,1.2,0.,1.2,0.,1.2,0.,1.2
1989-08-25T09:05:28.820 ,0,0,1.,1.2,0.,1.2,0.,1.2,0.,1.2
1989-08-25T09:05:30.020 ,0,0,0.,1.2,0.,1.2,0.,1.2,0.,1.2
1989-08-25T09:05:31.220 ,0,0,0.,1.2,0.,1.2,0.,1.2,0.,1.2
1989-08-25T09:05:32.420 ,0,0,0.,1.2,0.,1.2,0.,1.2,0.,1.2
1989-08-25T09:05:33.620 ,0,0,2.,1.2,0.,1.2,0.,1.2,0.,1.2
1989-08-25T09:05:34.820 ,0,0,1.,1.2,0.,1.2,0.,1.2,0.,1.2
1989-08-25T09:05:36.020 ,0,0,1.,1.2,0.,1.2,0.,1.2,0.,1.2
1989-08-25T09:05:37.220 ,0,0,0.,1.2,0.,1.2,0.,1.2,0.,1.2
1989-08-25T09:05:38.420 ,0,0,0.,1.2,0.,1.2,0.,1.2,0.,1.2
1989-08-25T09:05:39.620 ,0,0,0.,1.2,0.,1.2,0.,1.2,0.,1.2
1989-08-25T09:05:40.820 ,0,0,0.,1.2,0.,1.2,0.,1.2,0.,1.2
1989-08-25T09:05:42.020 ,0,0,0.,1.2,0.,1.2,0.,1.2,0.,1.2
1989-08-25T09:05:43.220 ,0,0,0.,1.2,0.,1.2,0.,1.2,0.,1.2
1989-08-25T09:05:44.420 ,0,0,1.,1.2,0.,1.2,0.,1.2,0.,1.2
1989-08-25T09:05:45.620 ,0,0,0.,1.2,0.,1.2,0.,1.2,0.,1.2
1989-08-25T09:05:46.820 ,0,0,1.,1.2,0.,1.2,0.,1.2,0.,1.2
1989-08-25T09:05:48.020 ,0,0,0.,1.2,0.,1.2,0.,1.2,0.,1.2
1989-08-25T09:05:49.220 ,0,0,0.,1.2,0.,1.2,0.,1.2,0.,1.2
1989-08-25T09:05:50.420 ,0,0,0.,1.2,0.,1.2,0.,1.2,0.,1.2
1989-08-25T09:05:51.620 ,0,0,0.,1.2,0.,1.2,0.,1.2,0.,1.2
1989-08-25T09:05:52.820 ,0,0,0.,1.2,0.,1.2,0.,1.2,0.,1.2
1989-08-25T09:05:54.020 ,0,0,0.,1.2,0.,1.2,0.,1.2,0.,1.2
1989-08-25T09:05:55.220 ,0,0,0.,1.2,0.,1.2,0.,1.2,0.,1.2
1989-08-25T09:05:56.420 ,0,0,0.,1.2,0.,1.2,0.,1.2,0.,1.2
1989-08-25T09:05:57.620 ,0,0,0.,1.2,0.,1.2,0.,1.2,0.,1.2
1989-08-25T09:05:58.820 ,0,0,1.,1.2,0.,1.2,0.,1.2,0.,1.2
1989-08-25T09:06:00.020 ,0,0,1.,1.2,0.,1.2,0.,1.2,0.,1.2
1989-08-25T09:06:01.220 ,0,0,1.,1.2,0.,1.2,0.,1.2,0.,1.2
1989-08-25T09:06:02.420 ,0,0,0.,1.2,0.,1.2,0.,1.2,0.,1.2
1989-08-25T09:06:03.620 ,0,0,1.,1.2,0.,1.2,0.,1.2,0.,1.2
1989-08-25T09:06:04.820 ,0,0,0.,1.2,0.,1.2,0.,1.2,0.,1.2
1989-08-25T09:06:06.020 ,0,0,1.,1.2,0.,1.2,0.,1.2,0.,1.2
1989-08-25T09:06:07.220 ,0,0,1.,1.2,0.,1.2,0.,1.2,0.,1.2
1989-08-25T09:06:08.420 ,0,0,1.,1.2,0.,1.2,0.,1.2,0.,1.2
1989-08-25T09:06:09.620 ,0,0,0.,1.2,0.,1.2,0.,1.2,0.,1.2
1989-08-25T09:06:10.820 ,0,0,2.,1.2,0.,1.2,0.,1.2,0.,1.2
1989-08-25T09:06:12.020 ,0,0,2.,1.2,0.,1.2,0.,1.2,0.,1.2
1989-08-25T09:06:13.220 ,0,0,1.,1.2,0.,1.2,0.,1.2,0.,1.2
1989-08-25T09:06:14.420 ,0,0,0.,1.2,0.,1.2,0.,1.2,0.,1.2
1989-08-25T09:06:15.620 ,0,0,0.,1.2,0.,1.2,0.,1.2,0.,1.2
1989-08-25T09:06:16.820 ,0,0,0.,1.2,0.,1.2,0.,1.2,0.,1.2
1989-08-25T09:06:18.020 ,0,0,0.,1.2,0.,1.2,0.,1.2,0.,1.2
1989-08-25T09:06:19.220 ,0,0,0.,1.2,0.,1.2,0.,1.2,0.,1.2
1989-08-25T09:06:20.420 ,0,0,0.,1.2,0.,1.2,0.,1.2,0.,1.2
1989-08-25T09:06:21.620 ,0,0,2.,1.2,0.,1.2,0.,1.2,0.,1.2
1989-08-25T09:06:22.820 ,0,0,0.,1.2,0.,1.2,0.,1.2,0.,1.2
1989-08-25T09:06:24.020 ,0,0,0.,1.2,0.,1.2,0.,1.2,0.,1.2
1989-08-25T09:06:25.220 ,0,0,1.,1.2,0.,1.2,0.,1.2,0.,1.2
1989-08-25T09:06:26.420 ,0,0,0.,1.2,0.,1.2,0.,1.2,0.,1.2
1989-08-25T09:06:27.620 ,0,0,0.,1.2,0.,1.2,0.,1.2,0.,1.2
1989-08-25T09:06:28.820 ,0,0,0.,1.2,0.,1.2,0.,1.2,0.,1.2
1989-08-25T09:06:30.020 ,0,0,1.,1.2,0.,1.2,0.,1.2,0.,1.2
1989-08-25T09:06:31.220 ,0,0,0.,1.2,0.,1.2,0.,1.2,0.,1.2
1989-08-25T09:06:32.420 ,0,0,0.,1.2,0.,1.2,0.,1.2,0.,1.2
1989-08-25T09:06:33.620 ,0,0,0.,1.2,0.,1.2,0.,1.2,0.,1.2
1989-08-25T09:06:34.820 ,0,0,1.,1.2,0.,1.2,0.,1.2,0.,1.2
1989-08-25T09:06:36.020 ,0,0,0.,1.2,0.,1.2,0.,1.2,0.,1.2
1989-08-25T09:06:37.220 ,0,0,1.,1.2,0.,1.2,0.,1.2,0.,1.2
1989-08-25T09:06:38.420 ,0,0,2.,1.2,0.,1.2,0.,1.2,0.,1.2
1989-08-25T09:06:39.620 ,0,0,0.,1.2,0.,1.2,0.,1.2,0.,1.2
1989-08-25T09:06:40.820 ,0,0,0.,1.2,0.,1.2,0.,1.2,0.,1.2
1989-08-25T09:06:42.020 ,0,0,1.,1.2,0.,1.2,0.,1.2,0.,1.2
1989-08-25T09:06:43.220 ,0,0,1.,1.2,0.,1.2,0.,1.2,0.,1.2
1989-08-25T09:06:44.420 ,0,0,0.,1.2,0.,1.2,0.,1.2,0.,1.2
1989-08-25T09:06:45.620 ,0,0,0.,1.2,0.,1.2,0.,1.2,0.,1.2
1989-08-25T09:06:46.820 ,0,0,1.,1.2,0.,1.2,0.,1.2,0.,1.2
1989-08-25T09:06:48.020 ,0,0,0.,1.2,0.,1.2,0.,1.2,0.,1.2
1989-08-25T09:06:49.220 ,0,0,1.,1.2,0.,1.2,0.,1.2,0.,1.2
1989-08-25T09:06:50.420 ,0,0,0.,1.2,0.,1.2,0.,1.2,0.,1.2
1989-08-25T09:06:51.620 ,0,0,0.,1.2,0.,1.2,0.,1.2,0.,1.2
1989-08-25T09:06:52.820 ,0,0,0.,1.2,0.,1.2,0.,1.2,0.,1.2
1989-08-25T09:06:54.020 ,0,0,0.,1.2,0.,1.2,0.,1.2,0.,1.2
1989-08-25T09:06:55.220 ,0,0,2.,1.2,0.,1.2,0.,1.2,0.,1.2
1989-08-25T09:06:56.420 ,0,0,0.,1.2,0.,1.2,0.,1.2,0.,1.2
1989-08-25T09:06:57.620 ,0,0,0.,1.2,0.,1.2,0.,1.2,0.,1.2
1989-08-25T09:06:58.820 ,0,0,2.,1.2,0.,1.2,0.,1.2,0.,1.2
1989-08-25T09:07:00.020 ,0,0,1.,1.2,0.,1.2,0.,1.2,0.,1.2
1989-08-25T09:07:01.220 ,0,0,0.,1.2,0.,1.2,0.,1.2,0.,1.2
1989-08-25T09:07:02.420 ,0,0,1.,1.2,0.,1.2,0.,1.2,0.,1.2
1989-08-25T09:07:03.620 ,0,0,0.,1.2,0.,1.2,0.,1.2,0.,1.2
1989-08-25T09:07:04.820 ,0,0,0.,1.2,0.,1.2,0.,1.2,0.,1.2
1989-08-25T09:07:06.020 ,0,0,0.,1.2,0.,1.2,0.,1.2,0.,1.2
1989-08-25T09:07:07.220 ,0,0,1.,1.2,0.,1.2,0.,1.2,0.,1.2
1989-08-25T09:07:08.420 ,0,0,0.,1.2,0.,1.2,0.,1.2,0.,1.2
1989-08-25T09:07:09.620 ,0,0,0.,1.2,0.,1.2,0.,1.2,0.,1.2
1989-08-25T09:07:10.820 ,0,0,0.,1.2,0.,1.2,0.,1.2,0.,1.2